[[{"header":{"parameterUnit":"m.s-1","parameterCategory":1,"la1":30.2991,"la2":30.254,"lo1":-89.0895,"lo2":-89.0444,"dy":0.0017,"dx":0.0017,"nx":28,"ny":28,"refTime":"2023-09-30T21:00:00:Z","depth":0,"parameterNumber":2,"parameterNumberName":"U-component_of_WINDS"},"data":[0,0,0,0,0,0,0,0,0,0,0,0,0,0,0,0,0,0,0,0,0,0,0,0,0,0,0,0,0,0,0,0,0,0,0,0,0,0,0,0,0,0,0,0,0,0,0,0,0,0,0,0,0,0,0,0,0,0,-5.329,-5.3291,0,-5.333,-5.3331,-5.3331,-5.3123,-5.3117,-5.3111,-5.3105,-5.315,-5.3156,-5.3163,0,0,0,0,0,0,0,0,0,0,0,0,0,-5.3037,-5.3043,-5.329,-5.3291,-5.3291,-5.333,-5.3331,-5.3331,-5.3124,-5.3117,-5.3109,-5.3103,-5.3148,-5.3156,-5.3164,0,0,0,0,0,0,0,0,0,0,0,0,0,-5.3119,-5.3045,-5.329,-5.3193,-5.3184,-5.333,-5.3331,-5.3331,-5.3126,-5.3117,-5.3108,-5.3099,-5.3145,-5.3155,-5.3165,-5.3408,0,0,-5.3196,-5.32,0,0,0,0,0,0,0,0,-5.3115,-5.3129,-5.3206,-5.32,-5.319,-5.3212,-5.3257,-5.3357,-5.3128,-5.3148,-5.3105,-5.3095,-5.3178,-5.3185,-5.3212,-5.341,-5.3412,-5.3197,-5.3203,-5.3207,-5.321,0,0,0,0,0,0,0,-5.3109,-5.3126,-5.3306,-5.3208,-5.3198,-5.3147,-5.3149,-5.3275,-5.3213,-5.3146,-5.313,-5.3138,-5.3172,-5.3203,-5.3212,-5.3412,-5.3197,-5.3206,-5.3212,-5.3216,-5.3809,-5.3818,0,0,0,0,0,0,-5.3116,-5.3122,-5.3305,-5.3307,-5.313,-5.3159,-5.3161,-5.3214,-5.3211,-5.3202,-5.3146,-5.3128,-5.319,-5.32,-5.3213,-5.3496,-5.3207,-5.3217,-5.3223,-5.38,-5.3811,-5.3822,0,0,0,0,0,0,-5.3112,-5.3135,-5.3303,-5.3211,-5.3228,-5.3173,-5.3235,-5.322,-5.325,-5.3211,-5.3199,-5.3189,-5.3183,-5.3198,-5.336,-5.3494,-5.3221,-5.3231,-5.3788,-5.3803,-5.3817,-5.4065,0,0,0,0,0,0,-5.3105,-5.3134,-5.3226,-5.3214,-5.3234,-5.345,-5.3243,-5.3227,-5.3268,-5.3246,-5.3248,-5.324,-5.3178,-5.3346,-5.337,-5.3503,-5.3239,-5.3776,-5.3795,-5.3812,-5.4045,-5.4086,-5.4122,0,0,0,0,0,-5.3097,-5.3295,-5.3231,-5.3254,-5.3347,-5.3458,-5.347,-5.3393,-5.328,-5.3371,-5.3346,-5.324,-5.3476,-5.3364,-5.339,-5.3528,-5.3767,-5.379,-5.3811,-5.4027,-5.4078,-5.4121,0,0,0,0,0,0,-5.3325,-5.3292,-5.3221,-5.3421,-5.3444,-5.3423,-5.3536,-5.3449,-5.3505,-5.3482,-5.3385,-5.3387,-5.3566,-5.3563,-5.3439,-5.3762,-5.3602,-5.363,-5.3758,-5.3806,-5.3844,-5.3841,-5.3247,0,0,0,0,0,-5.3398,-5.3491,-5.3457,-5.3637,-5.3652,-5.3593,-5.3638,-5.3577,-5.3597,-5.3606,-5.3592,-5.3617,-5.3696,-5.375,-5.3821,-5.4043,-5.404,-5.415,-5.4189,-5.4221,-5.4247,-5.4363,-5.4411,-5.3893,-5.3893,-5.3893,0,0,-5.3551,-5.3544,-5.3609,-5.3682,-5.3693,-5.3791,-5.3602,-5.3715,-5.3787,-5.3623,-5.3775,-5.3766,-5.3787,-5.3979,-5.4063,-5.3982,-5.4389,-5.4249,-5.4274,-5.4283,-5.439,-5.4439,-5.4483,-5.3908,-5.3905,-5.3903,0,0,-5.388,-5.3884,-5.4034,-5.4048,-5.4066,-5.4025,-5.4061,-5.4053,-5.404,-5.419,-5.407,-5.4154,-5.4293,-5.4313,-5.4341,-5.4676,-5.4581,-5.4702,-5.4904,-5.5019,-5.506,-5.5095,-5.5215,-5.5259,-5.4727,-5.4728,-5.4729,0,-5.4068,-5.421,-5.4122,-5.4242,-5.4278,-5.4133,-5.4284,-5.4302,-5.4344,-5.4372,-5.428,-5.445,-5.4454,-5.4649,-5.473,-5.4758,-5.4797,-5.4702,-5.5061,-5.5096,-5.5128,-5.524,-5.5286,-5.4743,-5.4741,-5.474,-5.4738,0,-5.4441,-5.4542,-5.466,-5.4702,-5.4751,-5.4887,-5.4819,-5.4879,-5.4813,-5.4783,-5.4937,-5.4937,-5.5004,-5.5046,-5.4983,-5.5232,-5.5181,-5.5077,-5.4914,-5.5193,-5.5297,-5.534,-5.4764,-5.4758,-5.4754,-5.475,0,0,-5.4916,-5.4905,-5.495,-5.4967,-5.4975,-5.5052,-5.518,-5.5245,-5.5299,-5.5332,-5.5437,-5.5557,-5.546,-5.5493,-5.5431,-5.5531,-5.5796,-5.5414,-5.5413,-5.5485,-5.607,-5.6149,-5.6201,-5.5733,-5.5741,-5.5747,-5.6069,0,-5.5237,-5.5455,-5.5379,-5.5601,-5.5693,-5.5556,-5.5668,-5.5686,-5.566,-5.5735,-5.5706,-5.5793,-5.5658,-5.5677,-5.577,-5.5745,-5.5913,-5.572,-5.5831,-5.5836,-5.5831,-5.6255,-5.6339,-5.6643,-5.6109,-5.6116,-5.6121,0,-5.5641,-5.5689,-5.5921,-5.5912,-5.5947,-5.605,-5.6102,-5.6175,-5.6192,-5.6166,-5.6202,-5.6119,-5.6244,-5.6081,-5.6253,-5.6124,-5.6165,-5.6159,-5.6169,-5.6177,-5.5996,-5.6275,-5.6738,-5.6784,-5.6184,-5.6179,-5.6175,0,-5.5964,-5.6086,-5.624,-5.6259,-5.6253,-5.6327,-5.6329,-5.6336,-5.638,-5.6426,-5.6454,-5.6515,-5.6549,-5.6599,-5.6534,-5.6421,-5.6716,-5.6547,-5.6699,-5.6701,-5.6768,-5.6765,-5.7244,-5.6794,-5.6794,-5.6793,-5.6792,0,-5.6331,-5.6479,-5.6385,-5.648,-5.6641,-5.6552,-5.6713,-5.6699,-5.6707,-5.6797,-5.6683,-5.677,-5.6679,-5.6758,-5.6708,-5.6859,-5.6875,-5.6858,-5.6843,-5.6869,-5.6871,-5.6894,-5.6872,-5.6805,-5.6802,-5.68,-5.6798,0,-5.672,-5.6663,-5.6821,-5.6802,-5.68,-5.692,-5.6903,-5.6991,-5.6956,-5.7072,-5.7094,-5.7041,-5.7127,-5.7067,-5.7155,-5.7121,-5.7318,-5.7274,-5.7313,-5.7301,-5.7455,-5.7442,-5.7967,-5.8031,-5.7541,-5.7546,-5.7549,0,-5.6958,-5.7067,-5.7059,-5.7111,-5.7119,-5.7204,-5.7247,-5.7163,-5.7213,-5.724,-5.7325,-5.7401,-5.7458,-5.7604,-5.7574,-5.764,-5.7596,-5.7776,-5.7606,-5.7627,-5.7599,-5.7593,-5.7604,-5.781,-5.7816,-5.7821,-5.7825,0,-5.7386,-5.7352,-5.7418,-5.7476,-5.753,-5.7571,-5.7603,-5.7652,-5.7567,-5.763,-5.7716,-5.776,-5.7848,-5.7926,-5.7981,-5.7982,-5.7891,-5.7878,-5.7917,-5.7944,-5.7962,-5.7954,-5.7407,-5.7867,-5.7863,-5.786,-5.7857,-5.7856,-5.7706,-5.7797,-5.7805,-5.7883,-5.7897,-5.793,-5.801,-5.7985,-5.8056,-5.812,-5.8066,-5.8171,-5.8184,-5.8247,-5.826,-5.8341,-5.8267,-5.8323,-5.8337,-5.8353,-5.8374,-5.7949,-5.835,-5.8349,-5.8348,-5.8347,-5.8346,0,-5.8128,-5.8126,-5.8199,-5.8246,-5.8307,-5.8213,-5.8244,-5.8301,-5.8394,-5.8413,-5.8471,-5.8571,-5.8645,-5.8621,-5.8687,-5.8756,-5.8716,-5.8777,-5.8771,-5.8773,-5.8436,-5.8396,-5.8808,-5.8808,-5.8808,-5.8808,-5.8808,-5.8808,-5.8355,-5.8503,-5.8471,-5.8625,-5.8622,-5.8722,-5.8747,-5.8776,-5.8791,-5.8907,-5.8968,-5.8951,-5.8953,-5.9018,-5.9083,-5.9074,-5.9104,-5.918,-5.9156,-5.8842,-5.8797,-5.8753,-5.8715,-5.9187,-5.9188,-5.9486,-5.9488,-5.9491]},{"header":{"parameterUnit":"m.s-1","parameterCategory":1,"la1":30.2991,"la2":30.254,"lo1":-89.0895,"lo2":-89.0444,"dy":0.0017,"dx":0.0017,"nx":28,"ny":28,"refTime":"2023-09-30T21:00:00:Z","depth":0,"parameterNumber":3,"parameterNumberName":"V-component_of_WINDS"},"data":[0,0,0,0,0,0,0,0,0,0,0,0,0,0,0,0,0,0,0,0,0,0,0,0,0,0,0,0,0,0,0,0,0,0,0,0,0,0,0,0,0,0,0,0,0,0,0,0,0,0,0,0,0,0,0,0,0,0,-2.615,-2.615,0,-2.6163,-2.6163,-2.6163,-2.6152,-2.6152,-2.6152,-2.6151,-2.6163,-2.6163,-2.6164,0,0,0,0,0,0,0,0,0,0,0,0,0,-2.6112,-2.6113,-2.615,-2.615,-2.615,-2.6163,-2.6163,-2.6163,-2.6153,-2.6152,-2.6151,-2.6151,-2.6162,-2.6163,-2.6164,0,0,0,0,0,0,0,0,0,0,0,0,0,-2.6127,-2.6113,-2.615,-2.6147,-2.6146,-2.6163,-2.6163,-2.6164,-2.6153,-2.6152,-2.6151,-2.6151,-2.6162,-2.6163,-2.6164,-2.6185,0,0,-2.6168,-2.6168,0,0,0,0,0,0,0,0,-2.6127,-2.6129,-2.6147,-2.6147,-2.6147,-2.6156,-2.6154,-2.6171,-2.6153,-2.615,-2.6151,-2.615,-2.6161,-2.6162,-2.6166,-2.6185,-2.6186,-2.6168,-2.6168,-2.6169,-2.6169,0,0,0,0,0,0,0,-2.6126,-2.6128,-2.6155,-2.6147,-2.6147,-2.6143,-2.6145,-2.6157,-2.6159,-2.615,-2.615,-2.6151,-2.616,-2.6165,-2.6166,-2.6186,-2.6168,-2.6169,-2.6169,-2.617,-2.622,-2.622,0,0,0,0,0,0,-2.6125,-2.6127,-2.6155,-2.6156,-2.6135,-2.6144,-2.6146,-2.6153,-2.6159,-2.6159,-2.6152,-2.6151,-2.6163,-2.6165,-2.6166,-2.6189,-2.6169,-2.617,-2.617,-2.6219,-2.622,-2.622,0,0,0,0,0,0,-2.6124,-2.6128,-2.6154,-2.6141,-2.6144,-2.6146,-2.6154,-2.6154,-2.6158,-2.616,-2.616,-2.6156,-2.6163,-2.6165,-2.618,-2.6189,-2.617,-2.6171,-2.6218,-2.6219,-2.622,-2.6235,0,0,0,0,0,0,-2.6123,-2.6128,-2.6136,-2.6142,-2.6145,-2.6168,-2.6155,-2.6155,-2.616,-2.6159,-2.6164,-2.6164,-2.6162,-2.6178,-2.6181,-2.619,-2.6172,-2.6217,-2.6219,-2.622,-2.6233,-2.6236,-2.6238,0,0,0,0,0,-2.6122,-2.614,-2.6137,-2.614,-2.6156,-2.6169,-2.6171,-2.6169,-2.6161,-2.6169,-2.617,-2.6164,-2.6188,-2.618,-2.6183,-2.6192,-2.6217,-2.6218,-2.622,-2.6232,-2.6235,-2.6238,0,0,0,0,0,0,-2.6136,-2.6141,-2.6137,-2.6158,-2.6163,-2.6167,-2.6177,-2.6173,-2.618,-2.6179,-2.6175,-2.6176,-2.6192,-2.6194,-2.6185,-2.6211,-2.6201,-2.6203,-2.6209,-2.6212,-2.6215,-2.6213,-2.6173,0,0,0,0,0,-2.6141,-2.6152,-2.6156,-2.6173,-2.6176,-2.6176,-2.6182,-2.618,-2.6185,-2.6187,-2.6189,-2.6194,-2.6202,-2.6207,-2.6215,-2.6233,-2.6233,-2.6241,-2.6244,-2.6246,-2.6248,-2.6255,-2.6258,-2.6225,-2.6225,-2.6225,0,0,-2.6153,-2.6157,-2.6164,-2.6176,-2.618,-2.619,-2.6178,-2.619,-2.6197,-2.6189,-2.6202,-2.6204,-2.6209,-2.6225,-2.6232,-2.6227,-2.6257,-2.6248,-2.625,-2.625,-2.6257,-2.626,-2.6263,-2.6226,-2.6226,-2.6226,0,0,-2.6178,-2.6183,-2.6197,-2.6201,-2.6207,-2.6206,-2.621,-2.6214,-2.6215,-2.6229,-2.6222,-2.623,-2.6245,-2.6247,-2.6251,-2.6275,-2.6269,-2.6277,-2.629,-2.6298,-2.63,-2.6303,-2.6309,-2.6312,-2.6279,-2.6279,-2.6279,0,-2.6191,-2.6207,-2.6205,-2.6216,-2.6221,-2.6214,-2.6227,-2.623,-2.6238,-2.6241,-2.6235,-2.6252,-2.6255,-2.6271,-2.6276,-2.628,-2.6282,-2.6277,-2.63,-2.6302,-2.6305,-2.6311,-2.6314,-2.628,-2.628,-2.628,-2.628,0,-2.6222,-2.6232,-2.6243,-2.625,-2.6256,-2.6269,-2.6267,-2.6273,-2.627,-2.6269,-2.6282,-2.6285,-2.6292,-2.6296,-2.6293,-2.6311,-2.6307,-2.6301,-2.629,-2.6309,-2.6314,-2.6317,-2.6281,-2.6281,-2.6281,-2.6281,0,0,-2.6257,-2.6262,-2.6266,-2.6268,-2.6273,-2.6281,-2.6292,-2.6299,-2.6303,-2.6308,-2.6316,-2.6328,-2.6322,-2.6325,-2.6323,-2.6329,-2.6346,-2.6322,-2.6322,-2.6325,-2.6363,-2.6367,-2.637,-2.6342,-2.6343,-2.6343,-2.6362,0,-2.6281,-2.6301,-2.6298,-2.6317,-2.6325,-2.6317,-2.6327,-2.633,-2.633,-2.6336,-2.6335,-2.6343,-2.6335,-2.6337,-2.6343,-2.6343,-2.6353,-2.6341,-2.6348,-2.6348,-2.6346,-2.6373,-2.6378,-2.6395,-2.6364,-2.6365,-2.6365,0,-2.6313,-2.6318,-2.6337,-2.6339,-2.6342,-2.6351,-2.6356,-2.6363,-2.6365,-2.6364,-2.6368,-2.6363,-2.6373,-2.6362,-2.6374,-2.6366,-2.6369,-2.6368,-2.6369,-2.6369,-2.6357,-2.6372,-2.6401,-2.6403,-2.6369,-2.6369,-2.6368,0,-2.6334,-2.6347,-2.6359,-2.6361,-2.6364,-2.637,-2.6371,-2.6373,-2.6377,-2.6381,-2.6383,-2.6388,-2.6391,-2.6395,-2.6391,-2.6384,-2.6403,-2.6393,-2.6401,-2.6401,-2.6405,-2.6404,-2.6433,-2.6408,-2.6408,-2.6408,-2.6408,0,-2.6361,-2.6372,-2.6368,-2.6376,-2.6388,-2.6384,-2.6396,-2.6396,-2.6397,-2.6404,-2.6398,-2.6404,-2.6399,-2.6404,-2.6401,-2.641,-2.6412,-2.6411,-2.6409,-2.641,-2.641,-2.6411,-2.641,-2.6409,-2.6409,-2.6408,-2.6408,0,-2.6387,-2.6385,-2.6398,-2.6398,-2.6399,-2.6407,-2.6408,-2.6414,-2.6412,-2.642,-2.6422,-2.642,-2.6425,-2.6422,-2.6428,-2.6426,-2.6437,-2.6435,-2.6436,-2.6435,-2.6443,-2.6442,-2.6473,-2.6476,-2.645,-2.6451,-2.6451,0,-2.6403,-2.6412,-2.6413,-2.6417,-2.6419,-2.6425,-2.6428,-2.6424,-2.6428,-2.6431,-2.6436,-2.6441,-2.6445,-2.6454,-2.6452,-2.6456,-2.6453,-2.6463,-2.6453,-2.6454,-2.6451,-2.645,-2.645,-2.6465,-2.6465,-2.6466,-2.6466,0,-2.6432,-2.6431,-2.6436,-2.644,-2.6445,-2.6448,-2.6451,-2.6454,-2.645,-2.6454,-2.6459,-2.6462,-2.6468,-2.6472,-2.6475,-2.6475,-2.6469,-2.6469,-2.6471,-2.6471,-2.6471,-2.647,-2.644,-2.6468,-2.6468,-2.6468,-2.6468,-2.6468,-2.6453,-2.6459,-2.6461,-2.6466,-2.6468,-2.647,-2.6475,-2.6474,-2.6479,-2.6483,-2.648,-2.6486,-2.6486,-2.649,-2.649,-2.6494,-2.649,-2.6493,-2.6494,-2.6494,-2.6494,-2.6471,-2.6495,-2.6495,-2.6495,-2.6495,-2.6495,0,-2.648,-2.6481,-2.6486,-2.6489,-2.6493,-2.6488,-2.649,-2.6493,-2.6499,-2.65,-2.6503,-2.6508,-2.6512,-2.651,-2.6513,-2.6517,-2.6514,-2.6517,-2.6516,-2.6516,-2.6499,-2.6496,-2.6519,-2.6519,-2.6519,-2.6519,-2.6519,-2.6519,-2.6495,-2.6505,-2.6503,-2.6512,-2.6512,-2.6518,-2.6519,-2.6521,-2.6521,-2.6528,-2.6531,-2.6529,-2.6529,-2.6531,-2.6534,-2.6533,-2.6534,-2.6538,-2.6536,-2.652,-2.6518,-2.6515,-2.6513,-2.6539,-2.6539,-2.6553,-2.6553,-2.6553]}]]